This is the latest recevied weather packets stored in our database for station/object KB7STN. If no packets are shown the sender has not sent any weather packets the latest 10 day(s).
| Time | Temp. | Humidity | Pressure | Rain* | Wind** | Luminosity | Snow |
|---|---|---|---|---|---|---|---|
| 1777957938 | 12.78° C | 57% | 997.7 hPa | 0 mm | - | - | - |
| 1777957638 | 12.78° C | 57% | 997.6 hPa | 0 mm | - | - | - |
| 1777957338 | 12.78° C | 57% | 997.5 hPa | 0 mm | - | - | - |
| 1777957038 | 13.33° C | 58% | 997.6 hPa | 0 mm | - | - | - |
| 1777956738 | 13.33° C | 58% | 997.6 hPa | 0 mm | - | - | - |
| 1777956438 | 13.33° C | 57% | 997.2 hPa | 0 mm | - | - | - |
| 1777956138 | 13.33° C | 57% | 997.3 hPa | 0 mm | - | - | - |
| 1777955838 | 13.89° C | 55% | 997.1 hPa | 0 mm | - | - | - |
| 1777955538 | 14.44° C | 53% | 997.1 hPa | 0 mm | - | - | - |
| 1777955238 | 14.44° C | 51% | 997.1 hPa | 0 mm | - | - | - |
| 1777954938 | 15° C | 47% | 996.9 hPa | 0 mm | - | - | - |
| 1777954638 | 15.56° C | 45% | 996.9 hPa | 0 mm | - | - | - |
| 1777954338 | 15.56° C | 42% | 996.8 hPa | 0 mm | - | - | - |
| 1777954038 | 15.56° C | 42% | 996.7 hPa | 0 mm | - | - | - |
| 1777953738 | 15.56° C | 42% | 996.7 hPa | 0 mm | - | - | - |
| 1777953438 | 15.56° C | 42% | 996.7 hPa | 0 mm | - | - | - |
| 1777953138 | 15.56° C | 41% | 996.6 hPa | 0 mm | - | - | - |
| 1777952838 | 15.56° C | 41% | 996.5 hPa | 0 mm | - | - | - |
| 1777952538 | 15.56° C | 41% | 996.4 hPa | 0 mm | - | - | - |
| 1777952238 | 15.56° C | 41% | 996.4 hPa | 0 mm | - | - | - |
| 1777951938 | 15.56° C | 41% | 996.4 hPa | 0 mm | - | - | - |
| 1777951638 | 15.56° C | 42% | 996.2 hPa | 0 mm | - | - | - |
| 1777951338 | 15.56° C | 43% | 996.2 hPa | 0 mm | - | - | - |
| 1777951038 | 15.56° C | 44% | 996.2 hPa | 0 mm | - | - | - |
| 1777950738 | 15.56° C | 44% | 996 hPa | 0 mm | - | - | - |
* Rain latest hour (hover to see other rain measurements)
** Current wind speed in m/s (hover to see current wind gust speed)